Regional Weather Roundup
Issued by NWS

Home | Current Version | Previous Version | Graphics & Text | Print | Product List | Glossary On
Versions: 1 2 3 4 5 6 7 8 9 10 11 12 13 14 15 16 17 18 19 20 21 22 23 24 25 26 27 28 29 30 31 32 33 34 35 36 37 38 39 40 41 42 43 44 45 46 47 48 49 50
000
ASUS43 KFSD 282310
RWRSD

WEATHER ROUNDUP FOR SOUTH DAKOTA
NATIONAL WEATHER SERVICE SIOUX FALLS SD
500 PM CST TUE FEB 28 2017

NOTE: "FAIR" INDICATES FEW OR NO CLOUDS BELOW 12,000 FEET WITH NO
SIGNIFICANT WEATHER AND/OR OBSTRUCTIONS TO VISIBILITY.


SDZ001>005-009-010-012>017-010000-
NORTHWEST AND NORTH CENTRAL SOUTH DAKOTA

CITY           SKY/WX    TMP DP  RH WIND       PRES   REMARKS
BUFFALO          N/A     28  21  75 E6        29.69R WCI  22
FAITH            N/A     24  21  88 N7        29.78R WCI  16
MOBRIDGE       CLOUDY    32  19  58 N10       29.78R WCI  24
$$

SDZ012>016-024>037-041>051-057-063-072>074-010000-
SOUTHWEST AND SOUTH CENTRAL SOUTH DAKOTA

CITY           SKY/WX    TMP DP  RH WIND       PRES   REMARKS
RAPID CTY ARPT CLOUDY    28  21  75 N6        29.76R WCI  22
PIERRE         CLOUDY    26  22  84 NW8       29.80R WCI  18
CUSTER         MOSUNNY   29  12  49 W14       29.64R WCI  18
ELLSWORTH AFB  CLOUDY    28  23  82 CALM      29.75R
PHILIP         CLOUDY    28  26  92 NW8       29.79S WCI  20
PINE RIDGE     SUNNY     33  22  63 W8        29.75R WCI  26
SPEARFISH      PTSUNNY   30  23  74 NE6       29.72R WCI  24
WINNER         CLOUDY    31  27  85 N13       29.77R WCI  21
$$

SDZ004>011-016>023-039-040-010000-
NORTHEAST SOUTH DAKOTA

CITY           SKY/WX    TMP DP  RH WIND       PRES   REMARKS
ABERDEEN       CLOUDY    30  22  72 N15       29.81R WCI  19
WATERTOWN      CLOUDY    29  26  89 N13       29.73S WCI  19
BROOKINGS      CLOUDY    30  27  88 N9        29.72R WCI  22
SISSETON         N/A     31  27  85 N14       29.79R WCI  21
$$

SDZ017-020-022-023-036>040-048>070-010000-
SOUTHEAST SOUTH DAKOTA

CITY           SKY/WX    TMP DP  RH WIND       PRES   REMARKS
SIOUX FALLS    CLOUDY    37  32  82 N10       29.71R
HURON          MIX PCPN  28  25  88 NW13      29.77R WCI  17
CHAMBERLAIN    CLOUDY    29  28  95 N5        29.79R FOG     WCI  24
MITCHELL       CLOUDY    31  25  78 NW15      29.77R WCI  20
YANKTON        PTSUNNY   37  30  75 NW17      29.71R
$$

ABBREVIATIONS USED IN REMARKS
   TC - TEMPERATURE IN CELSIUS
  WCI - WIND CHILL INDEX
   HX - HEAT INDEX
  VSB - VISIBILITY





USA.gov is the U.S. government's official web portal to all federal, state and local government web resources and services.